AZG238 EDFH-UBBB

Flight info

Callsign AZG238
Flight time 3h 56m
Altitude 33000
Route ULKIG Z100 RUDUS L984 LOHRE DCT BOREP DCT ENITA DCT PEPIK DCT BALAP/N0489F350 DCT BUDOP DCT SIB DCT PELUR DCT EKSUN DCT IDARU DCT DINRO N743 UDROS UM859 KARDE UN644 ROLIN N644 LAGAS M747 LUSAL N319 PENOB T447 INSAN
Aircraft B748/H-SDE3FGHIM1M2RWXY/LB1

Departure

Time 2026-04-28 11:47
Airport Frankfurt-Hahn Airport (EDFH)

Arrival

Time 2026-04-28 15:43
Airport Heydar Aliyev International Airport (UBBB)
Time Latitude Longitude Altitude Speed Heading
2026-04-28 11:21 49.95262 7.27462 1598 ft 0 kts 120°
2026-04-28 11:30 49.95268 7.27446 1599 ft 1 kts 120°
2026-04-28 11:30 49.95281 7.27412 1600 ft 1 kts 120°
2026-04-28 11:30 49.95288 7.27394 1601 ft 1 kts 120°
2026-04-28 11:31 49.95294 7.27377 1601 ft 1 kts 120°
2026-04-28 11:31 49.95301 7.27360 1602 ft 1 kts 125°
2026-04-28 11:31 49.95310 7.27347 1603 ft 1 kts 151°
2026-04-28 11:31 49.95322 7.27341 1603 ft 1 kts 175°
2026-04-28 11:32 49.95335 7.27341 1603 ft 1 kts 190°
2026-04-28 11:32 49.95347 7.27345 1603 ft 1 kts 194°
2026-04-28 11:32 49.95359 7.27353 1602 ft 1 kts 212°
2026-04-28 11:32 49.95364 7.27357 1602 ft 0 kts 211°
2026-04-28 11:34 49.95358 7.27352 1602 ft 2 kts 211°
2026-04-28 11:34 49.95335 7.27330 1603 ft 6 kts 212°
2026-04-28 11:34 49.95281 7.27276 1604 ft 10 kts 212°
2026-04-28 11:35 49.95213 7.27210 1606 ft 12 kts 212°
2026-04-28 11:35 49.95129 7.27128 1608 ft 15 kts 212°
2026-04-28 11:35 49.95041 7.27042 1611 ft 15 kts 212°
2026-04-28 11:35 49.94952 7.26955 1613 ft 15 kts 212°
2026-04-28 11:36 49.94858 7.26863 1615 ft 15 kts 212°
2026-04-28 11:36 49.94770 7.26775 1617 ft 15 kts 212°
2026-04-28 11:36 49.94681 7.26687 1619 ft 15 kts 212°
2026-04-28 11:36 49.94578 7.26640 1619 ft 17 kts 194°
2026-04-28 11:37 49.94467 7.26542 1620 ft 19 kts 213°
2026-04-28 11:37 49.94356 7.26428 1624 ft 19 kts 214°
2026-04-28 11:37 49.94244 7.26314 1627 ft 19 kts 213°
2026-04-28 11:37 49.94131 7.26199 1630 ft 18 kts 213°
2026-04-28 11:38 49.94020 7.26084 1633 ft 19 kts 213°
2026-04-28 11:38 49.93908 7.25968 1636 ft 16 kts 213°
2026-04-28 11:38 49.93826 7.25873 1640 ft 14 kts 228°
2026-04-28 11:38 49.93749 7.25767 1645 ft 14 kts 219°
2026-04-28 11:39 49.93703 7.25643 1649 ft 14 kts 273°
2026-04-28 11:39 49.93652 7.25511 1652 ft 16 kts 215°
2026-04-28 11:39 49.93549 7.25406 1654 ft 19 kts 212°
2026-04-28 11:39 49.93452 7.25309 1655 ft 19 kts 212°
2026-04-28 11:40 49.93335 7.25190 1656 ft 15 kts 212°
2026-04-28 11:40 49.93246 7.25102 1658 ft 15 kts 212°
2026-04-28 11:40 49.93157 7.25013 1659 ft 15 kts 212°
2026-04-28 11:40 49.93088 7.24940 1662 ft 10 kts 227°
2026-04-28 11:41 49.93081 7.24864 1662 ft 4 kts 297°
2026-04-28 11:41 49.93083 7.24858 1662 ft 0 kts 299°
2026-04-28 11:44 49.93090 7.24837 1662 ft 5 kts 299°
2026-04-28 11:45 49.93120 7.24762 1662 ft 10 kts 303°
2026-04-28 11:45 49.93174 7.24722 1661 ft 10 kts 28°
2026-04-28 11:45 49.93202 7.24749 1658 ft 0 kts 31°
2026-04-28 11:46 49.93224 7.24770 1657 ft 11 kts 31°
2026-04-28 11:46 49.93470 7.25011 1647 ft 78 kts 31°
2026-04-28 11:46 49.94139 7.25669 1649 ft 149 kts 32°
2026-04-28 11:46 49.95188 7.26705 1729 ft 201 kts 32°
2026-04-28 11:47 49.96416 7.27906 2421 ft 211 kts 31°
2026-04-28 11:47 49.97633 7.29085 3300 ft 210 kts 32°
2026-04-28 11:47 49.98853 7.30294 3916 ft 210 kts 32°
2026-04-28 11:47 50.00093 7.31526 4399 ft 213 kts 32°
2026-04-28 11:48 50.01346 7.32771 4846 ft 219 kts 32°
2026-04-28 11:48 50.02679 7.34096 5036 ft 238 kts 32°
2026-04-28 11:48 50.04113 7.35521 5222 ft 253 kts 32°
2026-04-28 11:48 50.05657 7.37055 5420 ft 275 kts 32°
2026-04-28 11:49 50.07045 7.38434 5908 ft 282 kts 32°
2026-04-28 11:49 50.08729 7.40110 6253 ft 298 kts 32°
2026-04-28 11:49 50.10487 7.41856 6922 ft 303 kts 32°
2026-04-28 11:49 50.12154 7.43866 7497 ft 306 kts 51°
2026-04-28 11:50 50.12991 7.46875 8097 ft 308 kts 84°
2026-04-28 11:50 50.12808 7.50179 8666 ft 311 kts 102°
2026-04-28 11:50 50.12334 7.53507 9257 ft 316 kts 102°
2026-04-28 11:50 50.11852 7.56841 9953 ft 318 kts 102°
2026-04-28 11:51 50.11384 7.60201 10591 ft 320 kts 102°
2026-04-28 11:51 50.10921 7.63578 11232 ft 322 kts 101°
2026-04-28 11:51 50.10449 7.67038 11707 ft 330 kts 102°
2026-04-28 11:51 50.09958 7.70613 11904 ft 347 kts 102°
2026-04-28 11:52 50.09439 7.74382 12027 ft 366 kts 102°
2026-04-28 11:52 50.08890 7.78348 12151 ft 384 kts 102°
2026-04-28 11:52 50.08310 7.82526 12352 ft 400 kts 102°
2026-04-28 11:52 50.07717 7.86776 12886 ft 407 kts 102°
2026-04-28 11:53 50.07110 7.91115 13504 ft 411 kts 102°
2026-04-28 11:53 50.06502 7.95444 14126 ft 414 kts 102°
2026-04-28 11:53 50.05889 7.99806 14726 ft 417 kts 102°
2026-04-28 11:53 50.05264 8.04238 15313 ft 421 kts 102°
2026-04-28 11:54 50.04847 8.08724 15818 ft 423 kts 92°
2026-04-28 11:54 50.04821 8.13368 16348 ft 427 kts 89°
2026-04-28 11:54 50.04879 8.17998 16887 ft 430 kts 89°
2026-04-28 11:54 50.04946 8.22625 17424 ft 433 kts 89°
2026-04-28 11:55 50.05006 8.27352 17948 ft 436 kts 89°
2026-04-28 11:55 50.05059 8.32097 18453 ft 439 kts 89°
2026-04-28 11:55 50.05110 8.36847 18943 ft 442 kts 89°
2026-04-28 11:55 50.05158 8.41592 19415 ft 445 kts 89°
2026-04-28 11:56 50.05207 8.46432 19863 ft 449 kts 89°
2026-04-28 11:56 50.05255 8.51295 20326 ft 451 kts 89°
2026-04-28 11:56 50.05303 8.56200 20774 ft 454 kts 89°
2026-04-28 11:56 50.05348 8.61132 21213 ft 457 kts 89°
2026-04-28 11:57 50.05406 8.66072 21641 ft 459 kts 89°
2026-04-28 11:57 50.05491 8.71068 22064 ft 462 kts 89°
2026-04-28 11:57 50.05586 8.76037 22473 ft 465 kts 88°
2026-04-28 11:57 50.05685 8.81107 22882 ft 467 kts 88°
2026-04-28 11:58 50.05779 8.86166 23279 ft 470 kts 88°
2026-04-28 11:58 50.05867 8.91287 23672 ft 472 kts 89°
2026-04-28 11:58 50.05954 8.96386 24053 ft 475 kts 88°
2026-04-28 11:58 50.06020 9.01517 24421 ft 477 kts 91°
2026-04-28 11:59 50.05869 9.06653 24765 ft 480 kts 94°
2026-04-28 11:59 50.05604 9.11891 25126 ft 482 kts 95°
2026-04-28 11:59 50.05314 9.17080 25486 ft 484 kts 95°
2026-04-28 11:59 50.05024 9.22239 25835 ft 486 kts 95°
2026-04-28 12:00 50.04728 9.27524 26184 ft 489 kts 95°
2026-04-28 12:00 50.04435 9.32791 26523 ft 491 kts 95°
2026-04-28 12:00 50.04137 9.38123 26858 ft 493 kts 95°
2026-04-28 12:00 50.03840 9.43432 27188 ft 495 kts 95°
2026-04-28 12:01 50.03543 9.48726 27513 ft 498 kts 95°
2026-04-28 12:01 50.03238 9.54098 27840 ft 500 kts 95°
2026-04-28 12:01 50.02931 9.59495 28164 ft 502 kts 95°
2026-04-28 12:01 50.02621 9.64892 28501 ft 504 kts 95°
2026-04-28 12:02 50.02307 9.70314 28919 ft 504 kts 95°
2026-04-28 12:02 50.01989 9.75770 29383 ft 502 kts 95°
2026-04-28 12:02 50.01676 9.81104 29844 ft 501 kts 95°
2026-04-28 12:02 50.01355 9.86526 30293 ft 499 kts 95°
2026-04-28 12:03 50.01036 9.91873 30734 ft 498 kts 95°
2026-04-28 12:03 50.00716 9.97200 31152 ft 496 kts 95°
2026-04-28 12:03 50.00404 10.02360 31538 ft 495 kts 95°
2026-04-28 12:03 50.00074 10.07781 31924 ft 494 kts 95°
2026-04-28 12:04 49.99747 10.13110 32283 ft 492 kts 95°
2026-04-28 12:04 49.99420 10.18397 32622 ft 491 kts 95°
2026-04-28 12:04 49.99094 10.23633 32942 ft 490 kts 95°
2026-04-28 12:04 49.98764 10.28871 33126 ft 488 kts 95°
2026-04-28 12:05 49.98096 10.39398 33128 ft 487 kts 95°
2026-04-28 12:05 49.97428 10.49797 33128 ft 487 kts 95°
2026-04-28 12:06 49.96745 10.60286 33129 ft 487 kts 96°
2026-04-28 12:06 49.95588 10.70653 33158 ft 488 kts 102°
2026-04-28 12:07 49.94174 10.80889 33158 ft 487 kts 102°
2026-04-28 12:07 49.92748 10.91187 33156 ft 487 kts 102°
2026-04-28 12:08 49.91327 11.01469 33157 ft 487 kts 102°
2026-04-28 12:08 49.89904 11.11727 33156 ft 487 kts 102°
2026-04-28 12:09 49.88481 11.21927 33157 ft 487 kts 102°
2026-04-28 12:09 49.87040 11.32188 33156 ft 487 kts 102°
2026-04-28 12:10 49.85591 11.42450 33157 ft 487 kts 102°
2026-04-28 12:10 49.84136 11.52680 33156 ft 487 kts 102°
2026-04-28 12:11 49.82679 11.62864 33157 ft 487 kts 102°
2026-04-28 12:11 49.81204 11.73105 33156 ft 487 kts 103°
2026-04-28 12:12 49.79721 11.83330 33156 ft 487 kts 103°
2026-04-28 12:12 49.78233 11.93527 33156 ft 487 kts 103°
2026-04-28 12:13 49.76726 12.03786 33156 ft 487 kts 103°
2026-04-28 12:13 49.75220 12.13964 33156 ft 487 kts 103°
2026-04-28 12:14 49.73709 12.24121 33156 ft 487 kts 103°
2026-04-28 12:14 49.72181 12.34329 33156 ft 487 kts 103°
2026-04-28 12:15 49.70652 12.44475 33155 ft 487 kts 103°
2026-04-28 12:15 49.68977 12.54617 33156 ft 487 kts 105°
2026-04-28 12:16 49.67178 12.64669 33170 ft 487 kts 105°
2026-04-28 12:16 49.65369 12.74718 33181 ft 487 kts 105°
2026-04-28 12:17 49.63559 12.84760 33182 ft 487 kts 105°
2026-04-28 12:17 49.61729 12.94868 33183 ft 487 kts 105°
2026-04-28 12:18 49.59903 13.04913 33182 ft 487 kts 105°
2026-04-28 12:18 49.58076 13.14912 33183 ft 487 kts 105°
2026-04-28 12:19 49.56234 13.24939 33182 ft 487 kts 105°
2026-04-28 12:19 49.54384 13.34959 33183 ft 487 kts 105°
2026-04-28 12:20 49.52524 13.44981 33182 ft 487 kts 105°
2026-04-28 12:20 49.50658 13.54984 33183 ft 487 kts 105°
2026-04-28 12:21 49.48789 13.64948 33182 ft 487 kts 105°
2026-04-28 12:21 49.46910 13.74913 33183 ft 487 kts 106°
2026-04-28 12:22 49.45016 13.84900 33182 ft 487 kts 106°
2026-04-28 12:22 49.43114 13.94883 33183 ft 487 kts 106°
2026-04-28 12:23 49.41213 14.04808 33183 ft 487 kts 106°
2026-04-28 12:23 49.39288 14.14807 33183 ft 487 kts 106°
2026-04-28 12:24 49.37371 14.24707 33183 ft 487 kts 106°
2026-04-28 12:24 49.35445 14.34607 33183 ft 487 kts 106°
2026-04-28 12:25 49.33490 14.44597 33183 ft 487 kts 106°
2026-04-28 12:25 49.31547 14.54482 33183 ft 487 kts 106°
2026-04-28 12:26 49.29588 14.64396 33183 ft 487 kts 106°
2026-04-28 12:26 49.27625 14.74278 33183 ft 487 kts 107°
2026-04-28 12:27 49.25649 14.84173 33183 ft 487 kts 107°
2026-04-28 12:27 49.23667 14.94049 33183 ft 487 kts 107°
2026-04-28 12:28 49.21681 15.03903 33183 ft 487 kts 107°
2026-04-28 12:28 49.19677 15.13785 33183 ft 487 kts 107°
2026-04-28 12:29 49.16656 15.28598 33183 ft 487 kts 107°
2026-04-28 12:30 49.14640 15.38424 33183 ft 487 kts 107°
2026-04-28 12:30 49.12616 15.48234 33183 ft 487 kts 107°
2026-04-28 12:31 49.10572 15.58101 33183 ft 487 kts 107°
2026-04-28 12:31 49.08525 15.67925 33183 ft 487 kts 108°
2026-04-28 12:32 49.06462 15.77783 33183 ft 487 kts 108°
2026-04-28 12:32 49.04406 15.87559 33183 ft 487 kts 108°
2026-04-28 12:33 49.02338 15.97343 33183 ft 487 kts 108°
2026-04-28 12:33 49.00259 16.07132 33183 ft 487 kts 108°
2026-04-28 12:34 48.98173 16.16906 33183 ft 487 kts 108°
2026-04-28 12:34 48.96069 16.26722 33183 ft 487 kts 108°
2026-04-28 12:35 48.93972 16.36455 33183 ft 487 kts 108°
2026-04-28 12:35 48.91862 16.46202 33183 ft 487 kts 108°
2026-04-28 12:36 48.89731 16.56007 33183 ft 487 kts 108°
2026-04-28 12:36 48.87601 16.65752 33183 ft 487 kts 109°
2026-04-28 12:37 48.85469 16.75464 33183 ft 487 kts 109°
2026-04-28 12:37 48.83321 16.85204 33183 ft 487 kts 109°
2026-04-28 12:38 48.81160 16.94960 33183 ft 487 kts 109°
2026-04-28 12:38 48.79005 17.04650 33183 ft 487 kts 109°
2026-04-28 12:39 48.76380 17.14114 33188 ft 487 kts 115°
2026-04-28 12:39 48.73458 17.23271 33185 ft 487 kts 116°
2026-04-28 12:40 48.70491 17.32534 33184 ft 487 kts 115°
2026-04-28 12:40 48.67551 17.41720 33183 ft 487 kts 115°
2026-04-28 12:41 48.64617 17.50868 33183 ft 487 kts 115°
2026-04-28 12:41 48.61663 17.60049 33183 ft 487 kts 115°
2026-04-28 12:42 48.58688 17.69268 33183 ft 487 kts 116°
2026-04-28 12:42 48.55737 17.78377 33183 ft 487 kts 116°
2026-04-28 12:43 48.52778 17.87483 33183 ft 487 kts 116°
2026-04-28 12:43 48.49795 17.96632 33183 ft 487 kts 116°
2026-04-28 12:44 48.46806 18.05767 33183 ft 487 kts 116°
2026-04-28 12:44 48.43800 18.14921 33183 ft 487 kts 116°
2026-04-28 12:45 48.40791 18.24050 33183 ft 487 kts 116°
2026-04-28 12:45 48.37803 18.33083 33183 ft 487 kts 116°
2026-04-28 12:46 48.34777 18.42201 33183 ft 487 kts 116°
2026-04-28 12:46 48.31749 18.51293 33183 ft 487 kts 116°
2026-04-28 12:47 48.28731 18.60319 33183 ft 487 kts 116°
2026-04-28 12:47 48.25694 18.69374 33183 ft 487 kts 117°
2026-04-28 12:48 48.22644 18.78433 33183 ft 487 kts 117°
2026-04-28 12:48 48.19589 18.87479 33183 ft 487 kts 117°
2026-04-28 12:49 48.16535 18.96487 33183 ft 487 kts 117°
2026-04-28 12:49 48.13470 19.05501 33183 ft 487 kts 117°
2026-04-28 12:50 48.10386 19.14538 33183 ft 487 kts 117°
2026-04-28 12:50 48.07255 19.23472 33167 ft 486 kts 123°
2026-04-28 12:50 48.05227 19.27525 33313 ft 488 kts 129°
2026-04-28 12:51 48.03055 19.31364 33608 ft 489 kts 131°
2026-04-28 12:51 48.00822 19.35147 33985 ft 488 kts 131°
2026-04-28 12:51 47.98571 19.38934 34326 ft 488 kts 131°
2026-04-28 12:51 47.96327 19.42710 34636 ft 487 kts 131°
2026-04-28 12:52 47.94087 19.46482 34923 ft 487 kts 131°
2026-04-28 12:52 47.91847 19.50251 35165 ft 486 kts 131°
2026-04-28 12:52 47.89613 19.54006 35166 ft 487 kts 131°
2026-04-28 12:53 47.85118 19.61547 35183 ft 486 kts 131°
2026-04-28 12:53 47.80668 19.68991 35184 ft 485 kts 132°
2026-04-28 12:54 47.76188 19.76463 35183 ft 485 kts 132°
2026-04-28 12:54 47.71689 19.83946 35183 ft 485 kts 132°
2026-04-28 12:55 47.67187 19.91413 35183 ft 485 kts 132°
2026-04-28 12:55 47.62714 19.98811 35183 ft 485 kts 132°
2026-04-28 12:56 47.58207 20.06245 35183 ft 485 kts 132°
2026-04-28 12:56 47.53690 20.13673 35183 ft 485 kts 132°
2026-04-28 12:57 47.49187 20.21058 35183 ft 485 kts 132°
2026-04-28 12:57 47.44696 20.28404 35183 ft 485 kts 132°
2026-04-28 12:58 47.40151 20.35817 35183 ft 485 kts 132°
2026-04-28 12:58 47.35623 20.43181 35183 ft 485 kts 132°
2026-04-28 12:59 47.31118 20.50489 35183 ft 485 kts 132°
2026-04-28 12:59 47.26591 20.57812 35183 ft 485 kts 132°
2026-04-28 13:00 47.22035 20.65162 35183 ft 485 kts 133°
2026-04-28 13:00 47.17501 20.72456 35183 ft 485 kts 133°
2026-04-28 13:01 47.12964 20.79736 35183 ft 485 kts 133°
2026-04-28 13:01 47.08404 20.87031 35183 ft 485 kts 133°
2026-04-28 13:02 47.03849 20.94300 35183 ft 485 kts 133°
2026-04-28 13:02 46.99292 21.01550 35183 ft 485 kts 133°
2026-04-28 13:03 46.94730 21.08792 35183 ft 485 kts 133°
2026-04-28 13:03 46.90164 21.16019 35183 ft 485 kts 133°
2026-04-28 13:04 46.85587 21.23244 35183 ft 485 kts 133°
2026-04-28 13:04 46.81007 21.30456 35183 ft 485 kts 133°
2026-04-28 13:05 46.76397 21.37695 35183 ft 485 kts 133°
2026-04-28 13:05 46.71817 21.44869 35183 ft 485 kts 133°
2026-04-28 13:06 46.67880 21.52720 35216 ft 485 kts 117°
2026-04-28 13:06 46.64907 21.61520 35184 ft 485 kts 115°
2026-04-28 13:07 46.62026 21.70419 35182 ft 485 kts 115°
2026-04-28 13:07 46.59139 21.79270 35183 ft 485 kts 115°
2026-04-28 13:08 46.56233 21.88146 35183 ft 485 kts 115°
2026-04-28 13:08 46.53329 21.96988 35183 ft 485 kts 115°
2026-04-28 13:09 46.50439 22.05758 35183 ft 485 kts 115°
2026-04-28 13:09 46.47523 22.14578 35183 ft 485 kts 115°
2026-04-28 13:10 46.44597 22.23403 35183 ft 486 kts 115°
2026-04-28 13:10 46.41669 22.32202 35183 ft 486 kts 115°
2026-04-28 13:11 46.38739 22.40976 35183 ft 486 kts 115°
2026-04-28 13:11 46.35804 22.49739 35183 ft 486 kts 115°
2026-04-28 13:12 46.32862 22.58495 35183 ft 486 kts 115°
2026-04-28 13:12 46.29891 22.67305 35183 ft 486 kts 116°
2026-04-28 13:13 46.26931 22.76054 35183 ft 486 kts 116°
2026-04-28 13:13 46.23965 22.84791 35183 ft 486 kts 116°
2026-04-28 13:14 46.21003 22.93488 35183 ft 486 kts 116°
2026-04-28 13:14 46.18013 23.02237 35183 ft 486 kts 116°
2026-04-28 13:15 46.15022 23.10962 35183 ft 486 kts 116°
2026-04-28 13:15 46.12035 23.19645 35183 ft 486 kts 116°
2026-04-28 13:16 46.09032 23.28348 35183 ft 486 kts 116°
2026-04-28 13:16 46.06033 23.37009 35183 ft 486 kts 116°
2026-04-28 13:17 46.03012 23.45706 35183 ft 486 kts 116°
2026-04-28 13:17 46.00004 23.54338 35183 ft 486 kts 116°
2026-04-28 13:18 45.96977 23.62997 35183 ft 486 kts 116°
2026-04-28 13:18 45.93938 23.71661 35183 ft 486 kts 117°
2026-04-28 13:19 45.90893 23.80313 35183 ft 486 kts 117°
2026-04-28 13:19 45.87850 23.88932 35183 ft 486 kts 117°
2026-04-28 13:20 45.84793 23.97563 35183 ft 486 kts 117°
2026-04-28 13:20 45.81721 24.06213 35183 ft 486 kts 117°
2026-04-28 13:21 45.78666 24.14790 35183 ft 486 kts 117°
2026-04-28 13:21 45.75566 24.23333 35183 ft 486 kts 117°
2026-04-28 13:22 45.72428 24.31900 35183 ft 486 kts 117°
2026-04-28 13:22 45.69298 24.40420 35183 ft 486 kts 117°
2026-04-28 13:23 45.66165 24.48916 35183 ft 486 kts 117°
2026-04-28 13:23 45.63002 24.57484 35183 ft 486 kts 117°
2026-04-28 13:24 45.59857 24.65978 35183 ft 486 kts 118°
2026-04-28 13:24 45.56712 24.74446 35183 ft 486 kts 118°
2026-04-28 13:25 45.53549 24.82938 35183 ft 486 kts 118°
2026-04-28 13:25 45.50376 24.91427 35183 ft 486 kts 118°
2026-04-28 13:26 45.47204 24.99888 35183 ft 486 kts 118°
2026-04-28 13:26 45.44015 25.08369 35183 ft 486 kts 118°
2026-04-28 13:27 45.40837 25.16794 35183 ft 486 kts 118°
2026-04-28 13:27 45.37624 25.25287 35183 ft 486 kts 118°
2026-04-28 13:28 45.34432 25.33697 35183 ft 486 kts 118°
2026-04-28 13:28 45.31241 25.42081 35183 ft 486 kts 118°
2026-04-28 13:29 45.27954 25.50510 35183 ft 486 kts 121°
2026-04-28 13:29 45.24358 25.58550 35182 ft 486 kts 122°
2026-04-28 13:30 45.20689 25.66577 35183 ft 486 kts 123°
2026-04-28 13:30 45.17019 25.74610 35183 ft 486 kts 123°
2026-04-28 13:31 45.11531 25.86614 35183 ft 486 kts 123°
2026-04-28 13:31 45.07850 25.94645 35183 ft 486 kts 123°
2026-04-28 13:32 45.04198 26.02596 35183 ft 486 kts 123°
2026-04-28 13:32 45.00500 26.10635 35183 ft 486 kts 123°
2026-04-28 13:33 44.96845 26.18630 35183 ft 486 kts 123°
2026-04-28 13:33 44.92652 26.27751 35184 ft 486 kts 123°
2026-04-28 13:34 44.85245 26.43651 35183 ft 486 kts 123°
2026-04-28 13:34 44.77818 26.59501 35183 ft 486 kts 123°
2026-04-28 13:35 44.70387 26.75302 35183 ft 486 kts 124°
2026-04-28 13:35 44.62910 26.91122 35183 ft 486 kts 124°
2026-04-28 13:36 44.55444 27.06832 35183 ft 486 kts 124°
2026-04-28 13:36 44.47940 27.22538 35183 ft 486 kts 124°
2026-04-28 13:37 44.40418 27.38194 35183 ft 486 kts 124°
2026-04-28 13:37 44.32872 27.53817 35183 ft 486 kts 124°
2026-04-28 13:38 44.25316 27.69377 35183 ft 486 kts 124°
2026-04-28 13:38 44.17737 27.84899 35183 ft 486 kts 124°
2026-04-28 13:39 44.10102 28.00454 35183 ft 486 kts 124°
2026-04-28 13:39 44.02520 28.15818 35183 ft 486 kts 124°
2026-04-28 13:40 43.94825 28.31330 35183 ft 486 kts 124°
2026-04-28 13:40 43.87181 28.46660 35183 ft 486 kts 124°
2026-04-28 13:41 43.79473 28.62035 35183 ft 486 kts 124°
2026-04-28 13:41 43.71769 28.77329 35183 ft 486 kts 125°
2026-04-28 13:42 43.63967 28.92493 35184 ft 486 kts 126°
2026-04-28 13:42 43.56087 29.07467 35183 ft 486 kts 126°
2026-04-28 13:43 43.48153 29.22457 35183 ft 486 kts 126°
2026-04-28 13:43 43.40174 29.37480 35183 ft 486 kts 126°
2026-04-28 13:44 43.32189 29.52449 35183 ft 486 kts 126°
2026-04-28 13:44 43.24200 29.67356 35185 ft 486 kts 127°
2026-04-28 13:45 43.16197 29.82216 35184 ft 486 kts 127°
2026-04-28 13:45 43.08211 29.96974 35183 ft 486 kts 127°
2026-04-28 13:46 43.00143 30.11811 35183 ft 486 kts 127°
2026-04-28 13:46 42.92062 30.26601 35183 ft 486 kts 127°
2026-04-28 13:47 42.84000 30.41283 35183 ft 486 kts 127°
2026-04-28 13:47 42.75922 30.55950 35176 ft 485 kts 125°
2026-04-28 13:48 42.72857 30.64034 35160 ft 485 kts 105°
2026-04-28 13:48 42.71585 30.72310 35333 ft 488 kts 98°
2026-04-28 13:48 42.71249 30.76884 35164 ft 486 kts 94°
2026-04-28 13:48 42.71046 30.81428 35194 ft 486 kts 93°
2026-04-28 13:49 42.70573 30.90594 35188 ft 486 kts 94°
2026-04-28 13:49 42.69904 30.99704 35188 ft 486 kts 97°
2026-04-28 13:50 42.68929 31.08799 35183 ft 486 kts 98°
2026-04-28 13:50 42.67938 31.17823 35183 ft 486 kts 98°
2026-04-28 13:51 42.66959 31.26936 35183 ft 486 kts 98°
2026-04-28 13:51 42.65987 31.35973 35183 ft 486 kts 98°
2026-04-28 13:52 42.65006 31.45073 35183 ft 486 kts 98°
2026-04-28 13:52 42.64027 31.54094 35183 ft 486 kts 98°
2026-04-28 13:53 42.63034 31.63182 35183 ft 486 kts 98°
2026-04-28 13:53 42.62042 31.72210 35183 ft 486 kts 98°
2026-04-28 13:54 42.61039 31.81269 35183 ft 486 kts 98°
2026-04-28 13:54 42.60033 31.90302 35183 ft 486 kts 98°
2026-04-28 13:55 42.59012 31.99410 35183 ft 486 kts 98°
2026-04-28 13:55 42.58009 32.08411 35183 ft 486 kts 98°
2026-04-28 13:56 42.56979 32.17452 35183 ft 486 kts 98°
2026-04-28 13:56 42.55935 32.26508 35183 ft 486 kts 98°
2026-04-28 13:57 42.54887 32.35551 35183 ft 486 kts 98°
2026-04-28 13:57 42.53834 32.44591 35183 ft 486 kts 98°
2026-04-28 13:58 42.52776 32.53608 35183 ft 486 kts 98°
2026-04-28 13:58 42.51712 32.62620 35183 ft 486 kts 98°
2026-04-28 13:59 42.50635 32.71672 35183 ft 486 kts 99°
2026-04-28 13:59 42.49556 32.80690 35183 ft 486 kts 99°
2026-04-28 14:00 42.48473 32.89680 35183 ft 486 kts 99°
2026-04-28 14:00 42.47377 32.98719 35183 ft 486 kts 99°
2026-04-28 14:01 42.46283 33.07688 35183 ft 486 kts 99°
2026-04-28 14:01 42.45174 33.16732 35183 ft 486 kts 99°
2026-04-28 14:02 42.44060 33.25690 35183 ft 486 kts 99°
2026-04-28 14:02 42.42934 33.34699 35183 ft 486 kts 99°
2026-04-28 14:03 42.41807 33.43691 35183 ft 486 kts 99°
2026-04-28 14:03 42.40665 33.52711 35183 ft 486 kts 99°
2026-04-28 14:04 42.39518 33.61706 35183 ft 486 kts 99°
2026-04-28 14:04 42.38369 33.70673 35183 ft 486 kts 100°
2026-04-28 14:05 42.37214 33.79646 35183 ft 486 kts 100°
2026-04-28 14:05 42.36048 33.88654 35183 ft 486 kts 100°
2026-04-28 14:06 42.34882 33.97608 35183 ft 486 kts 100°
2026-04-28 14:06 42.33702 34.06604 35183 ft 486 kts 100°
2026-04-28 14:07 42.32516 34.15603 35183 ft 486 kts 100°
2026-04-28 14:07 42.31335 34.24519 35183 ft 486 kts 100°
2026-04-28 14:08 42.30138 34.33509 35183 ft 486 kts 100°
2026-04-28 14:08 42.28933 34.42507 35183 ft 486 kts 100°
2026-04-28 14:09 42.27720 34.51459 35183 ft 486 kts 100°
2026-04-28 14:09 42.26501 34.60406 35183 ft 486 kts 100°
2026-04-28 14:10 42.25280 34.69327 35183 ft 486 kts 101°
2026-04-28 14:10 42.24047 34.78299 35183 ft 486 kts 101°
2026-04-28 14:11 42.22808 34.87247 35183 ft 486 kts 101°
2026-04-28 14:11 42.21561 34.96158 35183 ft 486 kts 101°
2026-04-28 14:12 42.20303 35.05109 35183 ft 486 kts 101°
2026-04-28 14:12 42.19038 35.14056 35183 ft 486 kts 101°
2026-04-28 14:13 42.17775 35.22945 35183 ft 486 kts 101°
2026-04-28 14:13 42.16499 35.31878 35183 ft 486 kts 101°
2026-04-28 14:14 42.15213 35.40827 35183 ft 486 kts 101°
2026-04-28 14:14 42.13925 35.49741 35183 ft 486 kts 101°
2026-04-28 14:15 42.12626 35.58683 35183 ft 486 kts 101°
2026-04-28 14:15 42.11327 35.67564 35183 ft 486 kts 101°
2026-04-28 14:16 42.10016 35.76483 35183 ft 486 kts 101°
2026-04-28 14:16 42.08698 35.85403 35183 ft 486 kts 101°
2026-04-28 14:17 42.07379 35.94276 35183 ft 486 kts 101°
2026-04-28 14:17 42.06048 36.03178 35183 ft 486 kts 101°
2026-04-28 14:18 42.04714 36.12057 35183 ft 486 kts 101°
2026-04-28 14:18 42.03365 36.20988 35183 ft 486 kts 101°
2026-04-28 14:19 42.02018 36.29848 35183 ft 486 kts 101°
2026-04-28 14:19 41.99386 36.47043 35183 ft 486 kts 101°
2026-04-28 14:20 41.96643 36.64767 35183 ft 486 kts 101°
2026-04-28 14:20 41.93861 36.82555 35183 ft 486 kts 102°
2026-04-28 14:21 41.91594 36.96916 35183 ft 486 kts 102°
2026-04-28 14:21 41.90449 37.05874 35184 ft 486 kts 93°
2026-04-28 14:22 41.90236 37.14932 35179 ft 485 kts 91°
2026-04-28 14:22 41.90109 37.23939 35182 ft 486 kts 91°
2026-04-28 14:23 41.89969 37.32996 35183 ft 486 kts 91°
2026-04-28 14:23 41.89822 37.42024 35183 ft 486 kts 91°
2026-04-28 14:24 41.89667 37.51093 35183 ft 486 kts 91°
2026-04-28 14:24 41.89505 37.60163 35183 ft 486 kts 91°
2026-04-28 14:25 41.89337 37.69215 35183 ft 486 kts 91°
2026-04-28 14:25 41.89163 37.78222 35183 ft 486 kts 91°
2026-04-28 14:26 41.88981 37.87305 35183 ft 486 kts 91°
2026-04-28 14:26 41.88792 37.96339 35183 ft 486 kts 91°
2026-04-28 14:27 41.88596 38.05353 35183 ft 486 kts 91°
2026-04-28 14:27 41.88392 38.14449 35183 ft 486 kts 91°
2026-04-28 14:28 41.88182 38.23462 35183 ft 486 kts 91°
2026-04-28 14:28 41.87965 38.32522 35183 ft 486 kts 91°
2026-04-28 14:29 41.87740 38.41589 35183 ft 486 kts 91°
2026-04-28 14:29 41.87508 38.50629 35183 ft 486 kts 91°
2026-04-28 14:30 41.87270 38.59649 35183 ft 486 kts 91°
2026-04-28 14:30 41.87023 38.68724 35183 ft 486 kts 92°
2026-04-28 14:31 41.86770 38.77777 35183 ft 486 kts 92°
2026-04-28 14:31 41.86512 38.86788 35183 ft 486 kts 92°
2026-04-28 14:32 41.86244 38.95848 35183 ft 486 kts 92°
2026-04-28 14:32 41.85971 39.04856 35183 ft 486 kts 92°
2026-04-28 14:33 41.85689 39.13924 35183 ft 486 kts 92°
2026-04-28 14:33 41.85401 39.22953 35183 ft 486 kts 92°
2026-04-28 14:34 41.84957 39.36509 35183 ft 486 kts 92°
2026-04-28 14:35 41.84652 39.45560 35183 ft 486 kts 92°
2026-04-28 14:35 41.84342 39.54586 35183 ft 486 kts 92°
2026-04-28 14:36 41.84021 39.63576 35183 ft 486 kts 92°
2026-04-28 14:36 41.83691 39.72640 35183 ft 486 kts 93°
2026-04-28 14:37 41.83358 39.81644 35183 ft 486 kts 93°
2026-04-28 14:37 41.83017 39.90702 35183 ft 486 kts 93°
2026-04-28 14:38 41.82672 39.99689 35183 ft 486 kts 93°
2026-04-28 14:38 41.82319 40.08726 35183 ft 486 kts 93°
2026-04-28 14:39 41.81959 40.17804 35183 ft 486 kts 93°
2026-04-28 14:39 41.81588 40.26769 35183 ft 486 kts 93°
2026-04-28 14:40 41.81206 40.35835 35183 ft 486 kts 93°
2026-04-28 14:40 41.80821 40.44867 35183 ft 486 kts 93°
2026-04-28 14:41 41.80433 40.53844 35183 ft 486 kts 93°
2026-04-28 14:41 41.80036 40.62880 35183 ft 486 kts 93°
2026-04-28 14:42 41.79619 40.71933 35183 ft 486 kts 94°
2026-04-28 14:42 41.79177 40.80938 35183 ft 486 kts 94°
2026-04-28 14:43 41.78726 40.89943 35183 ft 486 kts 94°
2026-04-28 14:43 41.78269 40.98976 35183 ft 486 kts 94°
2026-04-28 14:44 41.77808 41.07955 35183 ft 486 kts 94°
2026-04-28 14:44 41.77338 41.16992 35183 ft 486 kts 94°
2026-04-28 14:45 41.76861 41.26030 35183 ft 486 kts 94°
2026-04-28 14:45 41.76378 41.35049 35183 ft 486 kts 94°
2026-04-28 14:46 41.75890 41.44034 35183 ft 486 kts 94°
2026-04-28 14:46 41.75393 41.53065 35183 ft 486 kts 94°
2026-04-28 14:47 41.74297 41.72538 35187 ft 486 kts 95°
2026-04-28 14:47 41.73779 41.81562 35184 ft 486 kts 95°
2026-04-28 14:48 41.73256 41.90554 35183 ft 486 kts 94°
2026-04-28 14:48 41.72725 41.99569 35183 ft 486 kts 94°
2026-04-28 14:49 41.72190 42.08571 35183 ft 486 kts 94°
2026-04-28 14:49 41.71643 42.17582 35183 ft 486 kts 95°
2026-04-28 14:50 41.71085 42.26559 35183 ft 486 kts 95°
2026-04-28 14:50 41.70526 42.35482 35183 ft 486 kts 95°
2026-04-28 14:51 41.69955 42.44493 35183 ft 486 kts 95°
2026-04-28 14:51 41.69380 42.53485 35183 ft 486 kts 95°
2026-04-28 14:52 41.68797 42.62487 35183 ft 486 kts 95°
2026-04-28 14:52 41.68207 42.71502 35183 ft 486 kts 95°
2026-04-28 14:53 41.67610 42.80541 35183 ft 486 kts 95°
2026-04-28 14:53 41.67011 42.89505 35183 ft 486 kts 95°
2026-04-28 14:54 41.66392 42.98540 35183 ft 486 kts 95°
2026-04-28 14:54 41.65771 43.07493 35183 ft 486 kts 95°
2026-04-28 14:55 41.65140 43.16507 35183 ft 486 kts 95°
2026-04-28 14:55 41.64508 43.25459 35183 ft 486 kts 95°
2026-04-28 14:56 41.63867 43.34456 35183 ft 486 kts 95°
2026-04-28 14:56 41.63221 43.43434 35183 ft 486 kts 95°
2026-04-28 14:57 41.62572 43.52405 35183 ft 486 kts 95°
2026-04-28 14:57 41.61909 43.61403 35183 ft 486 kts 95°
2026-04-28 14:58 41.61243 43.70359 35183 ft 486 kts 96°
2026-04-28 14:58 41.60568 43.79349 35183 ft 486 kts 96°
2026-04-28 14:59 41.59892 43.88279 35183 ft 486 kts 96°
2026-04-28 14:59 41.59206 43.97258 35183 ft 486 kts 96°
2026-04-28 15:00 41.58511 44.06258 35183 ft 486 kts 96°
2026-04-28 15:00 41.57817 44.15171 35183 ft 486 kts 96°
2026-04-28 15:01 41.56850 44.24068 35184 ft 486 kts 105°
2026-04-28 15:01 41.54849 44.32669 35179 ft 485 kts 108°
2026-04-28 15:02 41.52723 44.41211 35182 ft 486 kts 108°
2026-04-28 15:02 41.50598 44.49762 35183 ft 486 kts 108°
2026-04-28 15:03 41.48463 44.58338 35183 ft 486 kts 108°
2026-04-28 15:03 41.46340 44.66833 35183 ft 486 kts 109°
2026-04-28 15:04 41.44203 44.75353 35183 ft 486 kts 109°
2026-04-28 15:04 41.42048 44.83914 35183 ft 486 kts 109°
2026-04-28 15:05 41.39898 44.92422 35183 ft 486 kts 109°
2026-04-28 15:05 41.37734 45.00958 35183 ft 486 kts 109°
2026-04-28 15:06 41.35577 45.09444 35183 ft 486 kts 109°
2026-04-28 15:06 41.33415 45.17920 35183 ft 486 kts 109°
2026-04-28 15:07 41.31246 45.26395 35183 ft 486 kts 109°
2026-04-28 15:07 41.29055 45.34885 35183 ft 486 kts 109°
2026-04-28 15:08 41.26851 45.43398 35183 ft 486 kts 109°
2026-04-28 15:08 41.24656 45.51851 35183 ft 486 kts 109°
2026-04-28 15:09 41.22458 45.60295 35183 ft 486 kts 109°
2026-04-28 15:09 41.20156 45.68735 35185 ft 486 kts 111°
2026-04-28 15:10 41.17642 45.77053 35183 ft 486 kts 112°
2026-04-28 15:10 41.15105 45.85368 35183 ft 486 kts 112°
2026-04-28 15:11 41.12576 45.93655 35183 ft 486 kts 112°
2026-04-28 15:11 41.10036 46.01969 35183 ft 486 kts 112°
2026-04-28 15:12 41.07506 46.10232 35183 ft 486 kts 112°
2026-04-28 15:12 41.04961 46.18521 35183 ft 486 kts 112°
2026-04-28 15:13 41.02418 46.26782 35183 ft 486 kts 112°
2026-04-28 15:13 40.99866 46.35048 35183 ft 486 kts 112°
2026-04-28 15:14 40.97322 46.43265 35183 ft 486 kts 112°
2026-04-28 15:14 40.94757 46.51524 35183 ft 486 kts 112°
2026-04-28 15:15 40.92178 46.59804 35183 ft 486 kts 112°
2026-04-28 15:15 40.89610 46.68021 35183 ft 486 kts 112°
2026-04-28 15:16 40.87019 46.76290 35183 ft 486 kts 112°
2026-04-28 15:16 40.84438 46.84500 35183 ft 486 kts 112°
2026-04-28 15:17 40.81858 46.92681 35183 ft 486 kts 112°
2026-04-28 15:17 40.79253 47.00919 35183 ft 486 kts 112°
2026-04-28 15:18 40.76652 47.09118 35183 ft 486 kts 112°
2026-04-28 15:18 40.74039 47.17328 35183 ft 486 kts 112°
2026-04-28 15:19 40.71430 47.25507 35183 ft 486 kts 112°
2026-04-28 15:19 40.68803 47.33712 35183 ft 486 kts 112°
2026-04-28 15:20 40.66173 47.41904 35183 ft 486 kts 112°
2026-04-28 15:20 40.63548 47.50057 35140 ft 482 kts 112°
2026-04-28 15:20 40.62229 47.54142 34579 ft 485 kts 112°
2026-04-28 15:21 40.60911 47.58217 34069 ft 485 kts 112°
2026-04-28 15:21 40.59603 47.62257 33560 ft 486 kts 112°
2026-04-28 15:21 40.58267 47.66376 33038 ft 487 kts 113°
2026-04-28 15:21 40.56937 47.70471 32516 ft 487 kts 113°
2026-04-28 15:22 40.55603 47.74572 32001 ft 492 kts 113°
2026-04-28 15:22 40.54273 47.78653 31486 ft 493 kts 113°
2026-04-28 15:22 40.52926 47.82782 30956 ft 493 kts 113°
2026-04-28 15:22 40.51580 47.86903 30432 ft 495 kts 113°
2026-04-28 15:23 40.50216 47.91071 29901 ft 496 kts 113°
2026-04-28 15:23 40.48859 47.95213 29373 ft 498 kts 113°
2026-04-28 15:23 40.47490 47.99383 28840 ft 499 kts 113°
2026-04-28 15:23 40.46102 48.03606 28304 ft 502 kts 113°
2026-04-28 15:24 40.44725 48.07789 27758 ft 498 kts 113°
2026-04-28 15:24 40.43366 48.11913 27211 ft 491 kts 113°
2026-04-28 15:24 40.42025 48.15973 26671 ft 485 kts 113°
2026-04-28 15:24 40.40685 48.20029 26134 ft 480 kts 113°
2026-04-28 15:25 40.39367 48.24011 25612 ft 477 kts 113°
2026-04-28 15:25 40.38063 48.27944 25100 ft 475 kts 113°
2026-04-28 15:25 40.36737 48.31940 24579 ft 473 kts 113°
2026-04-28 15:25 40.35448 48.35820 24071 ft 469 kts 113°
2026-04-28 15:26 40.34148 48.39726 23558 ft 466 kts 113°
2026-04-28 15:26 40.32853 48.43612 23047 ft 462 kts 113°
2026-04-28 15:26 40.31581 48.47425 22546 ft 459 kts 113°
2026-04-28 15:26 40.30306 48.51243 22045 ft 456 kts 113°
2026-04-28 15:27 40.29037 48.55035 21548 ft 453 kts 113°
2026-04-28 15:27 40.27781 48.58785 21056 ft 450 kts 113°
2026-04-28 15:27 40.26542 48.62480 20571 ft 447 kts 113°
2026-04-28 15:27 40.25301 48.66180 20087 ft 444 kts 114°
2026-04-28 15:28 40.24063 48.69861 19605 ft 441 kts 114°
2026-04-28 15:28 40.22835 48.73512 19126 ft 438 kts 114°
2026-04-28 15:28 40.21601 48.77173 18645 ft 435 kts 114°
2026-04-28 15:28 40.20394 48.80761 18171 ft 431 kts 113°
2026-04-28 15:29 40.19647 48.84521 17646 ft 428 kts 92°
2026-04-28 15:29 40.19714 48.88379 17262 ft 426 kts 88°
2026-04-28 15:29 40.19879 48.92243 16805 ft 428 kts 86°
2026-04-28 15:29 40.20142 48.96105 16335 ft 423 kts 84°
2026-04-28 15:30 40.20439 48.99865 15872 ft 418 kts 85°
2026-04-28 15:30 40.20666 49.03661 15412 ft 415 kts 86°
2026-04-28 15:30 40.20900 49.07382 14960 ft 413 kts 83°
2026-04-28 15:30 40.21252 49.11111 14512 ft 411 kts 82°
2026-04-28 15:31 40.21624 49.14791 14065 ft 409 kts 82°
2026-04-28 15:31 40.21997 49.18459 13618 ft 406 kts 82°
2026-04-28 15:31 40.22364 49.22088 13176 ft 403 kts 82°
2026-04-28 15:31 40.22728 49.25709 12736 ft 401 kts 82°
2026-04-28 15:32 40.23089 49.29315 12299 ft 399 kts 82°
2026-04-28 15:32 40.23326 49.31698 12009 ft 397 kts 82°
2026-04-28 15:32 40.23797 49.36454 11432 ft 394 kts 82°
2026-04-28 15:32 40.24145 49.39979 11105 ft 387 kts 82°
2026-04-28 15:33 40.24481 49.43402 10949 ft 374 kts 82°
2026-04-28 15:33 40.24805 49.46707 10773 ft 362 kts 82°
2026-04-28 15:33 40.25119 49.49926 10597 ft 350 kts 82°
2026-04-28 15:33 40.25424 49.53055 10421 ft 339 kts 82°
2026-04-28 15:34 40.25715 49.56050 10203 ft 330 kts 82°
2026-04-28 15:34 40.26001 49.59006 9729 ft 321 kts 82°
2026-04-28 15:34 40.26275 49.61850 9287 ft 306 kts 82°
2026-04-28 15:34 40.26534 49.64542 8882 ft 292 kts 82°
2026-04-28 15:35 40.26779 49.67083 8581 ft 275 kts 83°
2026-04-28 15:35 40.27233 49.71837 7853 ft 251 kts 83°
2026-04-28 15:35 40.27443 49.74048 7508 ft 240 kts 83°
2026-04-28 15:36 40.27644 49.76156 7189 ft 232 kts 83°
2026-04-28 15:36 40.27845 49.78273 6919 ft 234 kts 83°
2026-04-28 15:36 40.28041 49.80345 6650 ft 223 kts 83°
2026-04-28 15:36 40.28227 49.82309 6357 ft 211 kts 83°
2026-04-28 15:37 40.28401 49.84152 6057 ft 203 kts 83°
2026-04-28 15:37 40.28572 49.85972 5813 ft 201 kts 83°
2026-04-28 15:37 40.28744 49.87801 5564 ft 200 kts 83°
2026-04-28 15:37 40.28857 49.89008 5401 ft 199 kts 83°
2026-04-28 15:38 40.29078 49.91362 5072 ft 195 kts 83°
2026-04-28 15:38 40.29310 49.93113 4800 ft 195 kts 66°
2026-04-28 15:38 40.30033 49.94598 4601 ft 192 kts 57°
2026-04-28 15:38 40.30790 49.96074 4398 ft 196 kts 56°
2026-04-28 15:39 40.31553 49.97528 4125 ft 195 kts 55°
2026-04-28 15:39 40.32315 49.98975 3814 ft 192 kts 55°
2026-04-28 15:39 40.33073 50.00414 3505 ft 190 kts 55°
2026-04-28 15:39 40.33831 50.01851 3123 ft 195 kts 55°
2026-04-28 15:40 40.34600 50.03311 2701 ft 198 kts 55°
2026-04-28 15:40 40.35398 50.04826 2245 ft 203 kts 55°
2026-04-28 15:40 40.36179 50.06304 1882 ft 194 kts 54°
2026-04-28 15:40 40.37186 50.07312 1638 ft 176 kts 14°
2026-04-28 15:41 40.38307 50.07185 1449 ft 161 kts 330°
2026-04-28 15:41 40.39206 50.06224 1345 ft 171 kts 322°
2026-04-28 15:41 40.40294 50.05771 1115 ft 159 kts 350°
2026-04-28 15:41 40.41420 50.05451 964 ft 170 kts 346°
2026-04-28 15:42 40.42552 50.05075 673 ft 163 kts 346°
2026-04-28 15:42 40.43636 50.04729 426 ft 162 kts 347°
2026-04-28 15:42 40.44736 50.04407 244 ft 163 kts 347°
2026-04-28 15:42 40.45855 50.04072 24 ft 161 kts 347°
2026-04-28 15:43 40.46744 50.03796 22 ft 99 kts 347°
2026-04-28 15:43 40.47209 50.03650 22 ft 51 kts 346°
2026-04-28 15:43 40.47488 50.03561 22 ft 37 kts 346°
2026-04-28 15:43 40.47657 50.03542 22 ft 18 kts 40°
2026-04-28 15:44 40.47632 50.03675 22 ft 16 kts 166°
2026-04-28 15:44 40.47515 50.03695 22 ft 18 kts 161°
2026-04-28 15:44 40.47384 50.03756 22 ft 20 kts 159°
2026-04-28 15:44 40.47252 50.03823 22 ft 18 kts 160°
2026-04-28 15:45 40.47123 50.03886 22 ft 20 kts 160°
2026-04-28 15:45 40.46991 50.03949 22 ft 19 kts 160°
2026-04-28 15:45 40.46881 50.04004 22 ft 17 kts 149°
2026-04-28 15:45 40.46855 50.04142 22 ft 16 kts 76°
2026-04-28 15:46 40.46886 50.04314 22 ft 21 kts 78°
2026-04-28 15:46 40.46904 50.04508 22 ft 21 kts 87°
2026-04-28 15:46 40.46910 50.04702 22 ft 21 kts 88°
2026-04-28 15:46 40.46914 50.04893 22 ft 21 kts 88°
2026-04-28 15:47 40.46919 50.05088 22 ft 21 kts 88°
2026-04-28 15:47 40.46924 50.05280 22 ft 21 kts 88°
2026-04-28 15:47 40.46928 50.05476 22 ft 21 kts 88°
2026-04-28 15:47 40.46933 50.05669 22 ft 20 kts 88°
2026-04-28 15:48 40.46939 50.05861 22 ft 21 kts 88°
2026-04-28 15:48 40.46941 50.06024 22 ft 15 kts 98°
2026-04-28 15:48 40.46860 50.06091 22 ft 15 kts 178°
2026-04-28 15:48 40.46730 50.06092 22 ft 21 kts 180°
2026-04-28 15:49 40.46612 50.06089 22 ft 12 kts 199°
2026-04-28 15:49 40.46571 50.05982 22 ft 13 kts 234°
2026-04-28 15:49 40.46480 50.05959 22 ft 14 kts 179°
2026-04-28 15:49 40.46350 50.05961 22 ft 21 kts 180°
2026-04-28 15:50 40.46207 50.05962 22 ft 15 kts 179°
2026-04-28 15:50 40.46137 50.05953 22 ft 6 kts 212°
2026-04-28 15:50 40.46124 50.05908 22 ft 5 kts 271°
2026-04-28 15:50 40.46124 50.05870 22 ft 0 kts 270°
2026-04-28 15:51 40.46124 50.05864 22 ft 0 kts 270°